owner,sensor,date,latitude,longitude,air_pressure(mBar),qcFlag 
WAVCIS,ioos:station:WAVCIS:CSI15:1,2009-01-01T00:00:00Z,28.8332,-90.8320,1018.25,11111222 
WAVCIS,ioos:station:WAVCIS:CSI15:1,2009-01-01T01:00:00Z,28.8332,-90.8320,1018.9,11111222 
WAVCIS,ioos:station:WAVCIS:CSI15:1,2009-01-01T02:00:00Z,28.8332,-90.8320,1019.25,11111222 
WAVCIS,ioos:station:WAVCIS:CSI15:1,2009-01-01T03:00:00Z,28.8332,-90.8320,1018.99,11111222 
WAVCIS,ioos:station:WAVCIS:CSI15:1,2009-01-01T04:00:00Z,28.8332,-90.8320,1018.93,11111222 
WAVCIS,ioos:station:WAVCIS:CSI15:1,2009-01-01T05:00:00Z,28.8332,-90.8320,1018.72,11111222 
WAVCIS,ioos:station:WAVCIS:CSI15:1,2009-01-01T06:00:00Z,28.8332,-90.8320,1018.4,11111222 
WAVCIS,ioos:station:WAVCIS:CSI15:1,2009-01-01T07:00:00Z,28.8332,-90.8320,1017.67,11111222 
WAVCIS,ioos:station:WAVCIS:CSI15:1,2009-01-01T08:00:00Z,28.8332,-90.8320,1017.61,11111222 
WAVCIS,ioos:station:WAVCIS:CSI15:1,2009-01-01T09:00:00Z,28.8332,-90.8320,1016.88,11111222 
WAVCIS,ioos:station:WAVCIS:CSI15:1,2009-01-01T10:00:00Z,28.8332,-90.8320,1016.37,11111222 
WAVCIS,ioos:station:WAVCIS:CSI15:1,2009-01-01T11:00:00Z,28.8332,-90.8320,1016.68,11111222 
WAVCIS,ioos:station:WAVCIS:CSI15:1,2009-01-01T12:00:00Z,28.8332,-90.8320,1016.81,11111222 
WAVCIS,ioos:station:WAVCIS:CSI15:1,2009-01-01T13:00:00Z,28.8332,-90.8320,1016.54,11111222 
WAVCIS,ioos:station:WAVCIS:CSI15:1,2009-01-01T14:00:00Z,28.8332,-90.8320,1017.29,11111222 
WAVCIS,ioos:station:WAVCIS:CSI15:1,2009-01-01T15:00:00Z,28.8332,-90.8320,1017.38,11111222 
WAVCIS,ioos:station:WAVCIS:CSI15:1,2009-01-01T16:00:00Z,28.8332,-90.8320,1017.38,11111222 
WAVCIS,ioos:station:WAVCIS:CSI15:1,2009-01-01T17:00:00Z,28.8332,-90.8320,1017.17,11111222 
WAVCIS,ioos:station:WAVCIS:CSI15:1,2009-01-01T18:00:00Z,28.8332,-90.8320,1016.2,11111222 
WAVCIS,ioos:station:WAVCIS:CSI15:1,2009-01-01T19:00:00Z,28.8332,-90.8320,1015.25,11111222 
WAVCIS,ioos:station:WAVCIS:CSI15:1,2009-01-01T20:00:00Z,28.8332,-90.8320,1014.64,11111222 
WAVCIS,ioos:station:WAVCIS:CSI15:1,2009-01-01T21:00:00Z,28.8332,-90.8320,1014.43,11111222 
WAVCIS,ioos:station:WAVCIS:CSI15:1,2009-01-01T22:00:00Z,28.8332,-90.8320,1014.45,11111222 
WAVCIS,ioos:station:WAVCIS:CSI15:1,2009-01-01T23:00:00Z,28.8332,-90.8320,1014.2,11111222 
WAVCIS,ioos:station:WAVCIS:CSI15:1,2009-01-02T00:00:00Z,28.8332,-90.8320,1013.72,11111222 
WAVCIS,ioos:station:WAVCIS:CSI15:1,2009-01-02T01:00:00Z,28.8332,-90.8320,1013.64,11111222 
WAVCIS,ioos:station:WAVCIS:CSI15:1,2009-01-02T02:00:00Z,28.8332,-90.8320,1013.14,11111222 
WAVCIS,ioos:station:WAVCIS:CSI15:1,2009-01-02T03:00:00Z,28.8332,-90.8320,1013.34,11111222 
WAVCIS,ioos:station:WAVCIS:CSI15:1,2009-01-02T04:00:00Z,28.8332,-90.8320,1012.98,11111222 
WAVCIS,ioos:station:WAVCIS:CSI15:1,2009-01-02T05:00:00Z,28.8332,-90.8320,1012.57,11111222 
WAVCIS,ioos:station:WAVCIS:CSI15:1,2009-01-02T06:00:00Z,28.8332,-90.8320,1011.88,11111222 
WAVCIS,ioos:station:WAVCIS:CSI15:1,2009-01-02T07:00:00Z,28.8332,-90.8320,1011.51,11111222 
WAVCIS,ioos:station:WAVCIS:CSI15:1,2009-01-02T08:00:00Z,28.8332,-90.8320,1011.81,11111222 
WAVCIS,ioos:station:WAVCIS:CSI15:1,2009-01-02T09:00:00Z,28.8332,-90.8320,1012.34,11111222 
WAVCIS,ioos:station:WAVCIS:CSI15:1,2009-01-02T10:00:00Z,28.8332,-90.8320,1012.58,11111222 
WAVCIS,ioos:station:WAVCIS:CSI15:1,2009-01-02T11:00:00Z,28.8332,-90.8320,1012.62,11111222 
WAVCIS,ioos:station:WAVCIS:CSI15:1,2009-01-02T12:00:00Z,28.8332,-90.8320,1012.79,11111222 
WAVCIS,ioos:station:WAVCIS:CSI15:1,2009-01-02T13:00:00Z,28.8332,-90.8320,1013.14,11111222 
WAVCIS,ioos:station:WAVCIS:CSI15:1,2009-01-02T14:00:00Z,28.8332,-90.8320,1013.4,11111222 
WAVCIS,ioos:station:WAVCIS:CSI15:1,2009-01-02T15:00:00Z,28.8332,-90.8320,1013.68,11111222 
WAVCIS,ioos:station:WAVCIS:CSI15:1,2009-01-02T16:00:00Z,28.8332,-90.8320,1014.12,11111222 
WAVCIS,ioos:station:WAVCIS:CSI15:1,2009-01-02T17:00:00Z,28.8332,-90.8320,1013.8,11111222 
WAVCIS,ioos:station:WAVCIS:CSI15:1,2009-01-02T18:00:00Z,28.8332,-90.8320,1012.91,11111222 
WAVCIS,ioos:station:WAVCIS:CSI15:1,2009-01-02T19:00:00Z,28.8332,-90.8320,1012.1,11111222 
WAVCIS,ioos:station:WAVCIS:CSI15:1,2009-01-02T20:00:00Z,28.8332,-90.8320,1011.73,11111222 
WAVCIS,ioos:station:WAVCIS:CSI15:1,2009-01-02T21:00:00Z,28.8332,-90.8320,1011.51,11111222 
WAVCIS,ioos:station:WAVCIS:CSI15:1,2009-01-02T22:00:00Z,28.8332,-90.8320,1011.6,11111222 
WAVCIS,ioos:station:WAVCIS:CSI15:1,2009-01-02T23:00:00Z,28.8332,-90.8320,1011.53,11111222 
WAVCIS,ioos:station:WAVCIS:CSI15:1,2009-01-03T00:00:00Z,28.8332,-90.8320,1011.86,11111222 
WAVCIS,ioos:station:WAVCIS:CSI15:1,2009-01-03T01:00:00Z,28.8332,-90.8320,1012.07,11111222 
WAVCIS,ioos:station:WAVCIS:CSI15:1,2009-01-03T02:00:00Z,28.8332,-90.8320,1012.38,11111222 
WAVCIS,ioos:station:WAVCIS:CSI15:1,2009-01-03T03:00:00Z,28.8332,-90.8320,1012.34,11111222 
WAVCIS,ioos:station:WAVCIS:CSI15:1,2009-01-03T04:00:00Z,28.8332,-90.8320,1012.19,11111222 
WAVCIS,ioos:station:WAVCIS:CSI15:1,2009-01-03T05:00:00Z,28.8332,-90.8320,1011.83,11111222 
WAVCIS,ioos:station:WAVCIS:CSI15:1,2009-01-03T06:00:00Z,28.8332,-90.8320,1011.51,11111222 
WAVCIS,ioos:station:WAVCIS:CSI15:1,2009-01-03T07:00:00Z,28.8332,-90.8320,1011.36,11111222 
WAVCIS,ioos:station:WAVCIS:CSI15:1,2009-01-03T08:00:00Z,28.8332,-90.8320,1011.09,11111222 
WAVCIS,ioos:station:WAVCIS:CSI15:1,2009-01-03T09:00:00Z,28.8332,-90.8320,1011.01,11111222 
WAVCIS,ioos:station:WAVCIS:CSI15:1,2009-01-03T10:00:00Z,28.8332,-90.8320,1010.5,11111222 
WAVCIS,ioos:station:WAVCIS:CSI15:1,2009-01-03T11:00:00Z,28.8332,-90.8320,1010.75,11111222 
WAVCIS,ioos:station:WAVCIS:CSI15:1,2009-01-03T12:00:00Z,28.8332,-90.8320,1010.79,11111222 
WAVCIS,ioos:station:WAVCIS:CSI15:1,2009-01-03T13:00:00Z,28.8332,-90.8320,1011.6,11111222 
WAVCIS,ioos:station:WAVCIS:CSI15:1,2009-01-03T14:00:00Z,28.8332,-90.8320,1012.21,11111222 
WAVCIS,ioos:station:WAVCIS:CSI15:1,2009-01-03T15:00:00Z,28.8332,-90.8320,1012.82,11111222 
WAVCIS,ioos:station:WAVCIS:CSI15:1,2009-01-03T16:00:00Z,28.8332,-90.8320,1012.99,11111222 
WAVCIS,ioos:station:WAVCIS:CSI15:1,2009-01-03T17:00:00Z,28.8332,-90.8320,1012.3,11111222 
WAVCIS,ioos:station:WAVCIS:CSI15:1,2009-01-03T18:00:00Z,28.8332,-90.8320,1011.3,11111222 
WAVCIS,ioos:station:WAVCIS:CSI15:1,2009-01-03T19:00:00Z,28.8332,-90.8320,1011.01,11111222 
WAVCIS,ioos:station:WAVCIS:CSI15:1,2009-01-03T20:00:00Z,28.8332,-90.8320,1010.83,11111222 
WAVCIS,ioos:station:WAVCIS:CSI15:1,2009-01-03T21:00:00Z,28.8332,-90.8320,1009.15,11111222 
WAVCIS,ioos:station:WAVCIS:CSI15:1,2009-01-03T22:00:00Z,28.8332,-90.8320,1009.38,11111222 
WAVCIS,ioos:station:WAVCIS:CSI15:1,2009-01-03T23:00:00Z,28.8332,-90.8320,1009.65,11111222 
WAVCIS,ioos:station:WAVCIS:CSI15:1,2009-01-04T00:00:00Z,28.8332,-90.8320,1009.9,11111222 
WAVCIS,ioos:station:WAVCIS:CSI15:1,2009-01-04T01:00:00Z,28.8332,-90.8320,1010.42,11111222 
WAVCIS,ioos:station:WAVCIS:CSI15:1,2009-01-04T02:00:00Z,28.8332,-90.8320,1010.59,11111222 
WAVCIS,ioos:station:WAVCIS:CSI15:1,2009-01-04T03:00:00Z,28.8332,-90.8320,1010.87,11111222 
WAVCIS,ioos:station:WAVCIS:CSI15:1,2009-01-04T04:00:00Z,28.8332,-90.8320,1011.09,11111222 
WAVCIS,ioos:station:WAVCIS:CSI15:1,2009-01-04T05:00:00Z,28.8332,-90.8320,1011.07,11111222 
WAVCIS,ioos:station:WAVCIS:CSI15:1,2009-01-04T06:00:00Z,28.8332,-90.8320,1011.09,11111222 
WAVCIS,ioos:station:WAVCIS:CSI15:1,2009-01-04T07:00:00Z,28.8332,-90.8320,1011.4,11111222 
WAVCIS,ioos:station:WAVCIS:CSI15:1,2009-01-04T08:00:00Z,28.8332,-90.8320,1011.73,11111222 
WAVCIS,ioos:station:WAVCIS:CSI15:1,2009-01-04T09:00:00Z,28.8332,-90.8320,1011.72,11111222 
WAVCIS,ioos:station:WAVCIS:CSI15:1,2009-01-04T10:00:00Z,28.8332,-90.8320,1011.87,11111222 
WAVCIS,ioos:station:WAVCIS:CSI15:1,2009-01-04T11:00:00Z,28.8332,-90.8320,1012.26,11111222 
WAVCIS,ioos:station:WAVCIS:CSI15:1,2009-01-04T12:00:00Z,28.8332,-90.8320,1012.72,11111222 
WAVCIS,ioos:station:WAVCIS:CSI15:1,2009-01-04T13:00:00Z,28.8332,-90.8320,1013.6,11111222 
WAVCIS,ioos:station:WAVCIS:CSI15:1,2009-01-04T14:00:00Z,28.8332,-90.8320,1014.46,11111222 
WAVCIS,ioos:station:WAVCIS:CSI15:1,2009-01-04T15:00:00Z,28.8332,-90.8320,1015.12,11111222 
WAVCIS,ioos:station:WAVCIS:CSI15:1,2009-01-04T16:00:00Z,28.8332,-90.8320,1015.59,11111222 
WAVCIS,ioos:station:WAVCIS:CSI15:1,2009-01-04T17:00:00Z,28.8332,-90.8320,1015.39,11111222 
WAVCIS,ioos:station:WAVCIS:CSI15:1,2009-01-04T18:00:00Z,28.8332,-90.8320,1015.22,11111222 
WAVCIS,ioos:station:WAVCIS:CSI15:1,2009-01-04T19:00:00Z,28.8332,-90.8320,1014.4,11111222 
WAVCIS,ioos:station:WAVCIS:CSI15:1,2009-01-04T20:00:00Z,28.8332,-90.8320,1014.59,11111222 
WAVCIS,ioos:station:WAVCIS:CSI15:1,2009-01-04T21:00:00Z,28.8332,-90.8320,1014.32,11111222 
WAVCIS,ioos:station:WAVCIS:CSI15:1,2009-01-04T22:00:00Z,28.8332,-90.8320,1014.26,11111222 
WAVCIS,ioos:station:WAVCIS:CSI15:1,2009-01-04T23:00:00Z,28.8332,-90.8320,1014.5,11111222 
WAVCIS,ioos:station:WAVCIS:CSI15:1,2009-01-05T00:00:00Z,28.8332,-90.8320,1014.93,11111222 
WAVCIS,ioos:station:WAVCIS:CSI15:1,2009-01-05T01:00:00Z,28.8332,-90.8320,1015.62,11111222 
WAVCIS,ioos:station:WAVCIS:CSI15:1,2009-01-05T02:00:00Z,28.8332,-90.8320,1015.94,11111222 
WAVCIS,ioos:station:WAVCIS:CSI15:1,2009-01-05T03:00:00Z,28.8332,-90.8320,1016.23,11111222 
WAVCIS,ioos:station:WAVCIS:CSI15:1,2009-01-05T04:00:00Z,28.8332,-90.8320,1016.24,11111222 
WAVCIS,ioos:station:WAVCIS:CSI15:1,2009-01-05T05:00:00Z,28.8332,-90.8320,1016.16,11111222 
WAVCIS,ioos:station:WAVCIS:CSI15:1,2009-01-05T06:00:00Z,28.8332,-90.8320,1016.16,11111222 
WAVCIS,ioos:station:WAVCIS:CSI15:1,2009-01-05T07:00:00Z,28.8332,-90.8320,1015.75,11111222 
WAVCIS,ioos:station:WAVCIS:CSI15:1,2009-01-05T08:00:00Z,28.8332,-90.8320,1015.63,11111222 
WAVCIS,ioos:station:WAVCIS:CSI15:1,2009-01-05T09:00:00Z,28.8332,-90.8320,1015.53,11111222 
WAVCIS,ioos:station:WAVCIS:CSI15:1,2009-01-05T10:00:00Z,28.8332,-90.8320,1015.22,11111222 
WAVCIS,ioos:station:WAVCIS:CSI15:1,2009-01-05T11:00:00Z,28.8332,-90.8320,1015.07,11111222 
WAVCIS,ioos:station:WAVCIS:CSI15:1,2009-01-05T12:00:00Z,28.8332,-90.8320,1015.18,11111222 
WAVCIS,ioos:station:WAVCIS:CSI15:1,2009-01-05T13:00:00Z,28.8332,-90.8320,1015.51,11111222 
WAVCIS,ioos:station:WAVCIS:CSI15:1,2009-01-05T14:00:00Z,28.8332,-90.8320,1015.64,11111222 
WAVCIS,ioos:station:WAVCIS:CSI15:1,2009-01-05T15:00:00Z,28.8332,-90.8320,1015.99,11111222 
WAVCIS,ioos:station:WAVCIS:CSI15:1,2009-01-05T16:00:00Z,28.8332,-90.8320,1016.12,11111222 
WAVCIS,ioos:station:WAVCIS:CSI15:1,2009-01-05T17:00:00Z,28.8332,-90.8320,1015.26,11111222 
WAVCIS,ioos:station:WAVCIS:CSI15:1,2009-01-05T18:00:00Z,28.8332,-90.8320,1014.06,11111222 
WAVCIS,ioos:station:WAVCIS:CSI15:1,2009-01-05T19:00:00Z,28.8332,-90.8320,1012.98,11111222 
WAVCIS,ioos:station:WAVCIS:CSI15:1,2009-01-05T20:00:00Z,28.8332,-90.8320,1012.42,11111222 
WAVCIS,ioos:station:WAVCIS:CSI15:1,2009-01-05T21:00:00Z,28.8332,-90.8320,1011.17,11111222 
WAVCIS,ioos:station:WAVCIS:CSI15:1,2009-01-05T22:00:00Z,28.8332,-90.8320,1010.7,11111222 
WAVCIS,ioos:station:WAVCIS:CSI15:1,2009-01-05T23:00:00Z,28.8332,-90.8320,1010.36,11111222 
WAVCIS,ioos:station:WAVCIS:CSI15:1,2009-01-06T00:00:00Z,28.8332,-90.8320,1010.35,11111222 
WAVCIS,ioos:station:WAVCIS:CSI15:1,2009-01-06T01:00:00Z,28.8332,-90.8320,1010.79,11111222 
WAVCIS,ioos:station:WAVCIS:CSI15:1,2009-01-06T02:00:00Z,28.8332,-90.8320,1010.43,11111222 
WAVCIS,ioos:station:WAVCIS:CSI15:1,2009-01-06T03:00:00Z,28.8332,-90.8320,1010.21,11111222 
WAVCIS,ioos:station:WAVCIS:CSI15:1,2009-01-06T04:00:00Z,28.8332,-90.8320,1010.35,11111222 
WAVCIS,ioos:station:WAVCIS:CSI15:1,2009-01-06T05:00:00Z,28.8332,-90.8320,1009.44,11111222 
WAVCIS,ioos:station:WAVCIS:CSI15:1,2009-01-06T06:00:00Z,28.8332,-90.8320,1008.72,11111222 
WAVCIS,ioos:station:WAVCIS:CSI15:1,2009-01-06T07:00:00Z,28.8332,-90.8320,1008.02,11111222 
WAVCIS,ioos:station:WAVCIS:CSI15:1,2009-01-06T08:00:00Z,28.8332,-90.8320,1007.42,11111222 
WAVCIS,ioos:station:WAVCIS:CSI15:1,2009-01-06T09:00:00Z,28.8332,-90.8320,1006.94,11111222 
WAVCIS,ioos:station:WAVCIS:CSI15:1,2009-01-06T10:00:00Z,28.8332,-90.8320,1006.051,11111222 
WAVCIS,ioos:station:WAVCIS:CSI15:1,2009-01-06T11:00:00Z,28.8332,-90.8320,1005.619,11111222 
WAVCIS,ioos:station:WAVCIS:CSI15:1,2009-01-06T12:00:00Z,28.8332,-90.8320,1005.876,11111222 
WAVCIS,ioos:station:WAVCIS:CSI15:1,2009-01-06T13:00:00Z,28.8332,-90.8320,1005.86,11111222 
WAVCIS,ioos:station:WAVCIS:CSI15:1,2009-01-06T14:00:00Z,28.8332,-90.8320,1006.118,11111222 
WAVCIS,ioos:station:WAVCIS:CSI15:1,2009-01-06T15:00:00Z,28.8332,-90.8320,1006.431,11111222 
WAVCIS,ioos:station:WAVCIS:CSI15:1,2009-01-06T16:00:00Z,28.8332,-90.8320,1006.707,11111222 
WAVCIS,ioos:station:WAVCIS:CSI15:1,2009-01-06T17:00:00Z,28.8332,-90.8320,1005.207,11111222 
WAVCIS,ioos:station:WAVCIS:CSI15:1,2009-01-06T18:00:00Z,28.8332,-90.8320,1004.046,11111222 
WAVCIS,ioos:station:WAVCIS:CSI15:1,2009-01-06T19:00:00Z,28.8332,-90.8320,1002.853,11111222 
WAVCIS,ioos:station:WAVCIS:CSI15:1,2009-01-06T20:00:00Z,28.8332,-90.8320,1002.344,11111222 
WAVCIS,ioos:station:WAVCIS:CSI15:1,2009-01-06T21:00:00Z,28.8332,-90.8320,1001.849,11111222 
WAVCIS,ioos:station:WAVCIS:CSI15:1,2009-01-06T22:00:00Z,28.8332,-90.8320,1001.593,11111222 
WAVCIS,ioos:station:WAVCIS:CSI15:1,2009-01-06T23:00:00Z,28.8332,-90.8320,1001.674,11111222 
WAVCIS,ioos:station:WAVCIS:CSI15:1,2009-01-07T00:00:00Z,28.8332,-90.8320,1002.223,11111222 
WAVCIS,ioos:station:WAVCIS:CSI15:1,2009-01-07T01:00:00Z,28.8332,-90.8320,1003.004,11111222 
WAVCIS,ioos:station:WAVCIS:CSI15:1,2009-01-07T02:00:00Z,28.8332,-90.8320,1003.874,11111222 
WAVCIS,ioos:station:WAVCIS:CSI15:1,2009-01-07T03:00:00Z,28.8332,-90.8320,1003.974,11111222 
WAVCIS,ioos:station:WAVCIS:CSI15:1,2009-01-07T04:00:00Z,28.8332,-90.8320,1004.965,11111222 
WAVCIS,ioos:station:WAVCIS:CSI15:1,2009-01-07T05:00:00Z,28.8332,-90.8320,1005.343,11111222 
WAVCIS,ioos:station:WAVCIS:CSI15:1,2009-01-07T06:00:00Z,28.8332,-90.8320,1005.677,11111222 
WAVCIS,ioos:station:WAVCIS:CSI15:1,2009-01-07T07:00:00Z,28.8332,-90.8320,1005.825,11111222 
WAVCIS,ioos:station:WAVCIS:CSI15:1,2009-01-07T08:00:00Z,28.8332,-90.8320,1006.104,11111222 
WAVCIS,ioos:station:WAVCIS:CSI15:1,2009-01-07T09:00:00Z,28.8332,-90.8320,1006.614,11111222 
WAVCIS,ioos:station:WAVCIS:CSI15:1,2009-01-07T10:00:00Z,28.8332,-90.8320,1006.953,11111222 
WAVCIS,ioos:station:WAVCIS:CSI15:1,2009-01-07T11:00:00Z,28.8332,-90.8320,1008.01,11111222 
WAVCIS,ioos:station:WAVCIS:CSI15:1,2009-01-07T12:00:00Z,28.8332,-90.8320,1009.0,11111222 
WAVCIS,ioos:station:WAVCIS:CSI15:1,2009-01-07T13:00:00Z,28.8332,-90.8320,1010.18,11111222 
WAVCIS,ioos:station:WAVCIS:CSI15:1,2009-01-07T14:00:00Z,28.8332,-90.8320,1011.66,11111222 
WAVCIS,ioos:station:WAVCIS:CSI15:1,2009-01-07T15:00:00Z,28.8332,-90.8320,1012.53,11111222 
WAVCIS,ioos:station:WAVCIS:CSI15:1,2009-01-07T16:00:00Z,28.8332,-90.8320,1012.32,11111222 
WAVCIS,ioos:station:WAVCIS:CSI15:1,2009-01-07T17:00:00Z,28.8332,-90.8320,1011.3,11111222 
WAVCIS,ioos:station:WAVCIS:CSI15:1,2009-01-07T18:00:00Z,28.8332,-90.8320,1010.23,11111222 
WAVCIS,ioos:station:WAVCIS:CSI15:1,2009-01-07T19:00:00Z,28.8332,-90.8320,1009.96,11111222 
WAVCIS,ioos:station:WAVCIS:CSI15:1,2009-01-07T20:00:00Z,28.8332,-90.8320,1010.09,11111222 
WAVCIS,ioos:station:WAVCIS:CSI15:1,2009-01-07T21:00:00Z,28.8332,-90.8320,1009.86,11111222 
WAVCIS,ioos:station:WAVCIS:CSI15:1,2009-01-07T22:00:00Z,28.8332,-90.8320,1010.61,11111222 
WAVCIS,ioos:station:WAVCIS:CSI15:1,2009-01-07T23:00:00Z,28.8332,-90.8320,1010.33,11111222 
WAVCIS,ioos:station:WAVCIS:CSI15:1,2009-01-08T00:00:00Z,28.8332,-90.8320,1010.2,11111222 
WAVCIS,ioos:station:WAVCIS:CSI15:1,2009-01-08T01:00:00Z,28.8332,-90.8320,1010.69,11111222 
WAVCIS,ioos:station:WAVCIS:CSI15:1,2009-01-08T02:00:00Z,28.8332,-90.8320,1011.32,11111222 
WAVCIS,ioos:station:WAVCIS:CSI15:1,2009-01-08T03:00:00Z,28.8332,-90.8320,1011.5,11111222 
WAVCIS,ioos:station:WAVCIS:CSI15:1,2009-01-08T04:00:00Z,28.8332,-90.8320,1011.96,11111222 
WAVCIS,ioos:station:WAVCIS:CSI15:1,2009-01-08T05:00:00Z,28.8332,-90.8320,1011.93,11111222 
WAVCIS,ioos:station:WAVCIS:CSI15:1,2009-01-08T06:00:00Z,28.8332,-90.8320,1011.85,11111222 
WAVCIS,ioos:station:WAVCIS:CSI15:1,2009-01-08T07:00:00Z,28.8332,-90.8320,1011.48,11111222 
WAVCIS,ioos:station:WAVCIS:CSI15:1,2009-01-08T08:00:00Z,28.8332,-90.8320,1011.46,11111222 
WAVCIS,ioos:station:WAVCIS:CSI15:1,2009-01-08T09:00:00Z,28.8332,-90.8320,1011.24,11111222 
WAVCIS,ioos:station:WAVCIS:CSI15:1,2009-01-08T10:00:00Z,28.8332,-90.8320,1011.36,11111222 
WAVCIS,ioos:station:WAVCIS:CSI15:1,2009-01-08T11:00:00Z,28.8332,-90.8320,1011.39,11111222 
WAVCIS,ioos:station:WAVCIS:CSI15:1,2009-01-08T12:00:00Z,28.8332,-90.8320,1011.84,11111222 
WAVCIS,ioos:station:WAVCIS:CSI15:1,2009-01-08T13:00:00Z,28.8332,-90.8320,1012.5,11111222 
WAVCIS,ioos:station:WAVCIS:CSI15:1,2009-01-08T14:00:00Z,28.8332,-90.8320,1013.28,11111222 
WAVCIS,ioos:station:WAVCIS:CSI15:1,2009-01-08T15:00:00Z,28.8332,-90.8320,1014.11,11111222 
WAVCIS,ioos:station:WAVCIS:CSI15:1,2009-01-08T16:00:00Z,28.8332,-90.8320,1014.59,11111222 
WAVCIS,ioos:station:WAVCIS:CSI15:1,2009-01-08T17:00:00Z,28.8332,-90.8320,1014.34,11111222 
WAVCIS,ioos:station:WAVCIS:CSI15:1,2009-01-08T18:00:00Z,28.8332,-90.8320,1013.42,11111222 
WAVCIS,ioos:station:WAVCIS:CSI15:1,2009-01-08T19:00:00Z,28.8332,-90.8320,1012.81,11111222 
WAVCIS,ioos:station:WAVCIS:CSI15:1,2009-01-08T20:00:00Z,28.8332,-90.8320,1012.73,11111222 
WAVCIS,ioos:station:WAVCIS:CSI15:1,2009-01-08T21:00:00Z,28.8332,-90.8320,1012.79,11111222 
WAVCIS,ioos:station:WAVCIS:CSI15:1,2009-01-08T22:00:00Z,28.8332,-90.8320,1012.95,11111222 
WAVCIS,ioos:station:WAVCIS:CSI15:1,2009-01-08T23:00:00Z,28.8332,-90.8320,1013.25,11111222 
WAVCIS,ioos:station:WAVCIS:CSI15:1,2009-01-09T00:00:00Z,28.8332,-90.8320,1013.4,11111222 
WAVCIS,ioos:station:WAVCIS:CSI15:1,2009-01-09T01:00:00Z,28.8332,-90.8320,1013.98,11111222 
WAVCIS,ioos:station:WAVCIS:CSI15:1,2009-01-09T02:00:00Z,28.8332,-90.8320,1014.4,11111222 
WAVCIS,ioos:station:WAVCIS:CSI15:1,2009-01-09T03:00:00Z,28.8332,-90.8320,1014.71,11111222 
WAVCIS,ioos:station:WAVCIS:CSI15:1,2009-01-09T04:00:00Z,28.8332,-90.8320,1015.12,11111222 
WAVCIS,ioos:station:WAVCIS:CSI15:1,2009-01-09T05:00:00Z,28.8332,-90.8320,1015.1,11111222 
WAVCIS,ioos:station:WAVCIS:CSI15:1,2009-01-09T06:00:00Z,28.8332,-90.8320,1014.65,11111222 
WAVCIS,ioos:station:WAVCIS:CSI15:1,2009-01-09T07:00:00Z,28.8332,-90.8320,1014.36,11111222 
WAVCIS,ioos:station:WAVCIS:CSI15:1,2009-01-09T08:00:00Z,28.8332,-90.8320,1014.65,11111222 
WAVCIS,ioos:station:WAVCIS:CSI15:1,2009-01-09T09:00:00Z,28.8332,-90.8320,1014.96,11111222 
WAVCIS,ioos:station:WAVCIS:CSI15:1,2009-01-09T10:00:00Z,28.8332,-90.8320,1014.87,11111222 
WAVCIS,ioos:station:WAVCIS:CSI15:1,2009-01-09T11:00:00Z,28.8332,-90.8320,1014.82,11111222 
WAVCIS,ioos:station:WAVCIS:CSI15:1,2009-01-09T12:00:00Z,28.8332,-90.8320,1014.79,11111222 
WAVCIS,ioos:station:WAVCIS:CSI15:1,2009-01-09T13:00:00Z,28.8332,-90.8320,1015.64,11111222 
WAVCIS,ioos:station:WAVCIS:CSI15:1,2009-01-09T14:00:00Z,28.8332,-90.8320,1016.24,11111222 
WAVCIS,ioos:station:WAVCIS:CSI15:1,2009-01-09T15:00:00Z,28.8332,-90.8320,1016.89,11111222 
WAVCIS,ioos:station:WAVCIS:CSI15:1,2009-01-09T16:00:00Z,28.8332,-90.8320,1017.28,11111222 
WAVCIS,ioos:station:WAVCIS:CSI15:1,2009-01-09T17:00:00Z,28.8332,-90.8320,1016.75,11111222 
WAVCIS,ioos:station:WAVCIS:CSI15:1,2009-01-09T18:00:00Z,28.8332,-90.8320,1016.03,11111222 
WAVCIS,ioos:station:WAVCIS:CSI15:1,2009-01-09T19:00:00Z,28.8332,-90.8320,1014.98,11111222 
WAVCIS,ioos:station:WAVCIS:CSI15:1,2009-01-09T20:00:00Z,28.8332,-90.8320,1014.81,11111222 
WAVCIS,ioos:station:WAVCIS:CSI15:1,2009-01-09T21:00:00Z,28.8332,-90.8320,1014.31,11111222 
WAVCIS,ioos:station:WAVCIS:CSI15:1,2009-01-09T22:00:00Z,28.8332,-90.8320,1014.19,11111222 
WAVCIS,ioos:station:WAVCIS:CSI15:1,2009-01-09T23:00:00Z,28.8332,-90.8320,1014.04,11111222 
WAVCIS,ioos:station:WAVCIS:CSI15:1,2009-01-10T00:00:00Z,28.8332,-90.8320,1013.74,11111222 
WAVCIS,ioos:station:WAVCIS:CSI15:1,2009-01-10T01:00:00Z,28.8332,-90.8320,1013.93,11111222 
WAVCIS,ioos:station:WAVCIS:CSI15:1,2009-01-10T02:00:00Z,28.8332,-90.8320,1013.68,11111222 
WAVCIS,ioos:station:WAVCIS:CSI15:1,2009-01-10T03:00:00Z,28.8332,-90.8320,1013.88,11111222 
WAVCIS,ioos:station:WAVCIS:CSI15:1,2009-01-10T04:00:00Z,28.8332,-90.8320,1014.35,11111222 
WAVCIS,ioos:station:WAVCIS:CSI15:1,2009-01-10T05:00:00Z,28.8332,-90.8320,1014.37,11111222 
WAVCIS,ioos:station:WAVCIS:CSI15:1,2009-01-10T06:00:00Z,28.8332,-90.8320,1014.51,11111222 
WAVCIS,ioos:station:WAVCIS:CSI15:1,2009-01-10T07:00:00Z,28.8332,-90.8320,1014.33,11111222 
WAVCIS,ioos:station:WAVCIS:CSI15:1,2009-01-10T08:00:00Z,28.8332,-90.8320,1014.33,11111222 
WAVCIS,ioos:station:WAVCIS:CSI15:1,2009-01-10T09:00:00Z,28.8332,-90.8320,1014.28,11111222 
WAVCIS,ioos:station:WAVCIS:CSI15:1,2009-01-10T10:00:00Z,28.8332,-90.8320,1014.56,11111222 
WAVCIS,ioos:station:WAVCIS:CSI15:1,2009-01-10T11:00:00Z,28.8332,-90.8320,1014.46,11111222 
WAVCIS,ioos:station:WAVCIS:CSI15:1,2009-01-10T12:00:00Z,28.8332,-90.8320,1014.47,11111222 
WAVCIS,ioos:station:WAVCIS:CSI15:1,2009-01-10T13:00:00Z,28.8332,-90.8320,1014.96,11111222 
WAVCIS,ioos:station:WAVCIS:CSI15:1,2009-01-10T14:00:00Z,28.8332,-90.8320,1015.85,11111222 
WAVCIS,ioos:station:WAVCIS:CSI15:1,2009-01-10T15:00:00Z,28.8332,-90.8320,1016.28,11111222 
WAVCIS,ioos:station:WAVCIS:CSI15:1,2009-01-10T16:00:00Z,28.8332,-90.8320,1016.61,11111222 
WAVCIS,ioos:station:WAVCIS:CSI15:1,2009-01-10T17:00:00Z,28.8332,-90.8320,1016.33,11111222 
WAVCIS,ioos:station:WAVCIS:CSI15:1,2009-01-10T18:00:00Z,28.8332,-90.8320,1015.9,11111222 
WAVCIS,ioos:station:WAVCIS:CSI15:1,2009-01-10T19:00:00Z,28.8332,-90.8320,1015.24,11111222 
WAVCIS,ioos:station:WAVCIS:CSI15:1,2009-01-10T20:00:00Z,28.8332,-90.8320,1014.42,11111222 
WAVCIS,ioos:station:WAVCIS:CSI15:1,2009-01-10T21:00:00Z,28.8332,-90.8320,1014.65,11111222 
WAVCIS,ioos:station:WAVCIS:CSI15:1,2009-01-10T22:00:00Z,28.8332,-90.8320,1014.32,11111222 
WAVCIS,ioos:station:WAVCIS:CSI15:1,2009-01-10T23:00:00Z,28.8332,-90.8320,1014.16,11111222 
WAVCIS,ioos:station:WAVCIS:CSI15:1,2009-01-11T00:00:00Z,28.8332,-90.8320,1014.1,11111222 
WAVCIS,ioos:station:WAVCIS:CSI15:1,2009-01-11T01:00:00Z,28.8332,-90.8320,1014.41,11111222 
WAVCIS,ioos:station:WAVCIS:CSI15:1,2009-01-11T02:00:00Z,28.8332,-90.8320,1015.26,11111222 
WAVCIS,ioos:station:WAVCIS:CSI15:1,2009-01-11T03:00:00Z,28.8332,-90.8320,1015.99,11111222 
WAVCIS,ioos:station:WAVCIS:CSI15:1,2009-01-11T04:00:00Z,28.8332,-90.8320,1016.4,11111222 
WAVCIS,ioos:station:WAVCIS:CSI15:1,2009-01-11T05:00:00Z,28.8332,-90.8320,1016.61,11111222 
WAVCIS,ioos:station:WAVCIS:CSI15:1,2009-01-11T06:00:00Z,28.8332,-90.8320,1015.99,11111222 
WAVCIS,ioos:station:WAVCIS:CSI15:1,2009-01-11T07:00:00Z,28.8332,-90.8320,1015.89,11111222 
WAVCIS,ioos:station:WAVCIS:CSI15:1,2009-01-11T08:00:00Z,28.8332,-90.8320,1015.8,11111222 
WAVCIS,ioos:station:WAVCIS:CSI15:1,2009-01-11T09:00:00Z,28.8332,-90.8320,1015.58,11111222 
WAVCIS,ioos:station:WAVCIS:CSI15:1,2009-01-11T10:00:00Z,28.8332,-90.8320,1016.25,11111222 
WAVCIS,ioos:station:WAVCIS:CSI15:1,2009-01-11T11:00:00Z,28.8332,-90.8320,1016.41,11111222 
WAVCIS,ioos:station:WAVCIS:CSI15:1,2009-01-11T12:00:00Z,28.8332,-90.8320,1016.88,11111222 
WAVCIS,ioos:station:WAVCIS:CSI15:1,2009-01-11T13:00:00Z,28.8332,-90.8320,1017.31,11111222 
WAVCIS,ioos:station:WAVCIS:CSI15:1,2009-01-11T14:00:00Z,28.8332,-90.8320,1018.33,11111222 
WAVCIS,ioos:station:WAVCIS:CSI15:1,2009-01-11T15:00:00Z,28.8332,-90.8320,1018.63,11111222 
WAVCIS,ioos:station:WAVCIS:CSI15:1,2009-01-11T16:00:00Z,28.8332,-90.8320,1019.4,11111222 
WAVCIS,ioos:station:WAVCIS:CSI15:1,2009-01-11T17:00:00Z,28.8332,-90.8320,1019.71,11111222 
WAVCIS,ioos:station:WAVCIS:CSI15:1,2009-01-11T18:00:00Z,28.8332,-90.8320,1019.06,11111222 
WAVCIS,ioos:station:WAVCIS:CSI15:1,2009-01-11T19:00:00Z,28.8332,-90.8320,1018.51,11111222 
WAVCIS,ioos:station:WAVCIS:CSI15:1,2009-01-11T20:00:00Z,28.8332,-90.8320,1018.31,11111222 
WAVCIS,ioos:station:WAVCIS:CSI15:1,2009-01-11T21:00:00Z,28.8332,-90.8320,1018.11,11111222 
WAVCIS,ioos:station:WAVCIS:CSI15:1,2009-01-11T22:00:00Z,28.8332,-90.8320,1018.14,11111222 